Terminal Aerodrome Forecast
Issued by NWS

Home | Current Version | Previous Version | Text Only | Print | Product List | Glossary On
Versions: 1 2 3 4 5 6 7 8 9 10 11 12 13 14 15 16 17 18 19 20 21 22 23 24 25 26 27 28 29 30 31 32 33 34 35 36 37
000
FTUS41 KOKX 231200 AAA
TAFHPN
TAF AMD
KHPN 231215Z 2312/2412 35016G26KT P6SM VCSH SCT015 BKN025
      TEMPO 2312/2315 2SM -SHRA BR BKN008
     FM231500 34015G23KT P6SM VCSH BKN025 BKN040
     FM232200 33013G21KT P6SM BKN040 BKN080
     FM240300 33011G17KT P6SM BKN050 BKN080
     FM240600 33010KT P6SM BKN050 BKN080
      AMD NOT SKED=

USA.gov is the U.S. government's official web portal to all federal, state and local government web resources and services.